Home > Time Zones > World Clock > Weather > Qatar > Doha > Past weeks

Flag for Qatar Weather past 2 weeks in Doha, Qatar

Now
99 °F

Passing clouds.


Feels Like: 110 °F
Forecast: 84 / 102 °F
Wind: 7 mph from Southeast

Location: Doha International Airport

Current Time: Sep 22, 2014 at 3:56:28 PM

Latest Report: Sep 22, 2014 at 3:00 PM


Visibility: N/A

Pressure: 29.68 "Hg

Humidity: 44%

Dew point: 73 °F

Location of DohaLocation

Historic Weather in Doha — Graph

°F

Doha temperature yesterday

Maximum temperature yesterday: 102 °F (at 11:30 AM)
Minimum temperature yesterday: 84 °F (at 5:30 AM)
Average temperature yesterday: 92 °F

Past Weeks' High & Low Weather Summary

 TemperatureHumidityPressure
High108 °F (Sep 10, 11:00 AM)84% (Sep 17, 2:00 AM)29.83 "Hg (Sep 17, 2:00 AM)
Low84 °F (Sep 14, 6:00 AM)8% (Sep 12, 3:00 PM)29.56 "Hg (Sep 7, 3:30 PM)
Average95 °F50%29.67 "Hg
* Reported Sep 7 2:00 PM — Sep 22 2:30 PM, Doha, Weather by CustomWeather, © 2014

Note: Actual official high and low records may vary slightly from our data, if they occured in-between our weather recording intervals... More about our weather records

Advertising

Doha weather history for previous 24 hours

 ConditionsComfort  
Time TempWeatherWind HumidityBarometerVisibility
2:30 PM
Sep 22
99 °FPassing clouds.7 mph42%29.68 "HgN/A
2:00 PM99 °FPassing clouds.9 mph33%29.68 "HgN/A
1:00 PM100 °FPassing clouds.7 mph40%29.68 "HgN/A
12:30 PM100 °FPassing clouds.7 mph33%29.68 "HgN/A
12:00 PM100 °FPassing clouds.7 mph33%29.71 "HgN/A
11:30 AM100 °FPassing clouds.7 mph35%29.71 "HgN/A
11:00 AM100 °FSunny.8 mph40%29.71 "Hg10 mi
10:30 AM99 °FSunny.7 mph47%29.71 "Hg10 mi
10:00 AM97 °FPassing clouds.7 mph47%29.74 "HgN/A
9:30 AM99 °FPassing clouds.7 mph42%29.74 "HgN/A
9:00 AM97 °FPassing clouds.5 mph53%29.74 "HgN/A
8:30 AM95 °FPassing clouds.6 mph53%29.74 "HgN/A
8:00 AM95 °FPassing clouds.3 mph56%29.74 "HgN/A
7:00 AM90 °FSunny.2 mph67%29.71 "Hg10 mi
6:30 AM90 °FPassing clouds.3 mph67%29.68 "HgN/A
6:00 AM84 °FSunny.2 mph79%29.68 "Hg10 mi
5:00 AM86 °FClear.2 mph75%29.68 "Hg10 mi
4:00 AM86 °FClear.No wind75%29.65 "Hg10 mi
3:00 AM86 °FClear.1 mph79%29.65 "Hg10 mi
2:00 AM86 °FClear.1 mph79%29.65 "Hg10 mi
1:00 AM88 °FClear.3 mph70%29.65 "Hg10 mi
12:00 AM88 °FClear.2 mph66%29.65 "Hg10 mi
11:00 PM
Sep 21
90 °FClear.1 mph63%29.68 "Hg10 mi
10:00 PM88 °FClear.2 mph62%29.68 "Hg10 mi
9:00 PM90 °FClear.3 mph55%29.68 "Hg10 mi
8:30 PM91 °FClear.3 mph49%29.68 "Hg10 mi
8:00 PM91 °FClear.2 mph52%29.68 "Hg10 mi
7:30 PM91 °FClear.3 mph52%29.68 "Hg10 mi
7:00 PM93 °FClear.3 mph53%29.68 "Hg10 mi
6:30 PM93 °FClear.5 mph53%29.65 "Hg10 mi
6:00 PM93 °FClear.6 mph56%29.65 "Hg10 mi
5:00 PM97 °FSunny.8 mph34%29.65 "Hg10 mi
4:30 PM97 °FSunny.9 mph42%29.62 "Hg10 mi
4:00 PM99 °FSunny.9 mph33%29.62 "Hg10 mi
3:00 PM100 °FSunny.9 mph25%29.62 "Hg10 mi
Weather by CustomWeather, © 2014

See weather overviewHow to use our weather pages